STARLINK-36868, 68120

Orbit data source: Space-Track

STARLINK-36868, 68120 is a payload satellite owned by SpaceX/Seattle (US) in SSO that was launched on Sun, 08 Mar 2026 UTC via an FALCON 9 launch vehicle from the Air Force Western Test Range (AFWTR). Payload-class satellites include a variety of spacecraft equipped with specific instruments for various scientific and technological missions. These include communications satellites like Starlink; space stations such as the ISS; scientific satellites like the Hubble; Earth observation satellites from companies like Planet Labs, Umbra, and HawkEye 360; GPS; miniature CubeSats for education and research; and military/defense satellites.

Loading next visibility...
Identifier
68120, 2026-044V
Orbit
SSO
Country
Flag of USUS
Related business
Manufacturer
SpaceX/Seattle
Mission
Operational spacecraft
Bus & Motor
STARLINK V2MO, Unknown motor
Mass
575 kg wet, ~530 kg dry
Launch date (UTC)
2026-03-08 (2 months ago)
Launch vehicle
FALCON 9
Launch site
Air Force Western Test Range (AFWTR)
Object type
Payload
Rocket body
Debris
Shape & HBR
Unknown shape, 17.7 m
Radar Cross Section
RCS unknown

Expand to show TLE details & history
Last TLE update: 12 hours ago

TLE from 12 hours ago
0 STARLINK-36868
1 68120U 26044V   26119.43700384  .00019928  00000-0  61782-3 0  9997
2 68120  97.2850  80.4779 0002327  98.3206 261.8300 15.33451054  9366
Epoch: 2026-04-29T10:29Z
TLE epoch observation values (Epoch: 2026-04-29T10:29:17.131Z)
Latitude
-0.00011°
Longitude
65.75855°
Altitude
468.864 km
Speed
7.632 km/s
True Right ascension
05h 21m 54s
True Declination
0° 00' 00"
Sunlit
Object was in daylight at epoch
Visualization orbit readout
Latitude
Unknown
Longitude
Unknown
Altitude
Unknown
Speed
Unknown
Apparent Right ascension
Unknown
Apparent Declination
Unknown
Sunlit
N/A
Visualization observer readout
Local Sidereal Time
05:45:23
Azimuth
Unknown
Elevation
Unknown
Doppler factor
Unknown
Orbital elements
Apogee altitude
464.06 km
Perigee altitude
460.876 km
Semi-major axis
6,840.605 km
Eccentricity
0.00023
Inclination
97.285°
RAAN
80.4779°
Arg. of periapsis
98.3206°
True anomaly
261.80361°
Mean anomaly
261.83°
Eccentric anomaly
261.8168°
Mean motion
3.8362 °/min
Orbital period
93.84 mins
BSTAR
0.00061782
Loading maneuver chart data...
Computing Atmospheric mass density...
Loading historical data...
Loading historical data...
Loading historical data...
Loading historical data...
Loading historical data...
Loading historical data...
Loading historical data...

Documentation

Showing up to 5 results
|